SCP
0 0 1 1 2 1 1 1 0 0 0 0 0 0 0 1 0 0 0 0 0 0 0 0 0 0 0 0 0 0 0 0 0 0 0 -0 -0 -0
1 0 1 0 0 0 0 0 0 0 0 0 0 0 0 0 0 0 0 0 0 0 0 0 0 0 0 0 0 0 0 0 0 0 -0 -0 -0 -0
0 1 0 1 0 0 0 0 0 0 0 0 0 0 0 -0 -0 0 0 0 0 0 0 0 -0 0 0 0 0 0 0 0 0 0 -0 -0 -0 -0
0 0 0 0 0 0 0 0 0 0 0 0 0 0 0 0 0 0 0 0 0 0 -0 0 0 -0 0 0 0 0 0 0 0 0 0 -0 0 -0
0 0 0 0 0 0 0 0 0 0 0 0 0 0 0 0 0 0 0 0 0 0 0 0 0 0 0 0 0 0 0 0 0 -0 -0 0 0 0
0 0 0 0 0 0 0 0 0 0 0 0 0 0 0 0 0 0 0 0 0 1 0 0 0 0 0 0 0 0 0 0 -0 -0 0 0 0 0
0 0 0 0 0 0 0 0 0 0 0 0 0 0 0 0 0 0 0 0 0 0 0 0 0 0 0 0 0 0 0 0 -0 -0 0 0 0 0
0 0 0 0 0 0 0 0 0 0 0 0 0 0 0 0 0 0 0 0 0 0 0 0 0 1 0 0 0 0 0 0 0 0 0 0 0 0
0 0 0 0 0 0 0 0 0 0 0 0 0 0 0 -0 -0 0 0 0 0 0 0 0 1 0 0 0 0 0 0 0 0 0 0 0 0 0
0 0 0 0 0 0 0 0 0 0 0 0 0 0 0 0 0 0 0 0 0 0 0 0 0 0 0 0 0 0 0 0 0 0 0 0 0 0
0 0 0 0 0 0 0 0 0 0 0 0 0 0 0 0 0 0 0 0 0 -0 0 0 0 0 0 0 0 0 -0 -0 0 0 0 0 0 0
0 0 0 0 0 0 0 0 0 0 0 0 0 0 0 0 0 0 0 0 0 0 0 0 0 0 0 0 0 0 0 -0 0 0 0 0 0 0
0 0 0 0 0 0 0 0 0 0 0 0 0 0 0 0 0 0 0 0 0 0 0 0 0 0 1 0 0 0 0 0 0 0 0 0 0 0
0 0 0 0 0 0 0 0 0 0 0 0 -0 -0 0 0 0 0 0 0 0 0 0 0 0 0 0 0 0 0 0 0 0 0 0 0 0 0
0 0 0 0 0 0 0 0 0 0 0 -0 -0 0 0 0 0 0 0 0 0 0 0 0 0 0 0 0 0 0 0 0 0 0 0 0 0 0
-0 0 0 0 -0 0 0 0 0 0 0 0 0 0 0 0 0 0 0 0 0 0 0 0 0 0 0 0 0 0 0 0 0 0 0 0 0 0
0 -0 -0 -0 0 0 0 0 0 0 0 0 0 -0 0 0 0 0 0 0 0 0 0 1 0 0 0 0 1 1 1 0 0 0 0 0 0 0
-0 -0 0 0 0 0 0 0 0 0 0 -0 0 -0 -0 0 0 0 0 0 0 0 0 0 0 0 0 0 0 0 1 1 1 0 0 0 0 0
0 -0 -0 0 -0 0 0 0 0 0 -0 -0 -0 0 -0 -0 0 0 0 0 0 0 0 0 0 0 0 0 0 0 0 1 1 1 0 0 0 0
0 0 -0 -0 0 0 0 0 0 0 -0 -0 -0 -0 -0 -0 -0 0 0 0 0 0 0 0 0 0 0 0 0 0 0 0 0 0 0 0 0 0
0 -0 -0 -0 0 0 0 0 0 0 0 0 -0 -0 0 0 -0 -0 0 0 0 0 0 0 0 0 0 0 0 0 0 0 0 0 0 0 0 0
0 -0 -0 -0 0 0 0 0 0 0 0 0 0 -0 0 -0 -0 0 0 0 0 0 0 0 0 0 0 0 0 0 0 0 0 0 0 0 0 0
0 -0 0 0 0 0 0 0 0 0 0 0 0 0 0 -0 -0 -0 -0 0 0 0 0 0 0 0 0 0 0 0 0 0 0 0 0 0 0 0
Wind_Speed_500mb
63 63 63 63 64 61 59 59 64 70 70 68 65 60 59 65 62 59 60 58 61 59 68 72 52 55 53 64 64 58 56 52 52 52 55 53 50 49
59 62 61 61 64 68 66 65 67 71 80 83 74 66 54 47 50 54 55 55 54 48 60 62 57 56 49 61 65 61 58 58 57 57 52 53 50 46
65 66 71 64 68 69 66 67 68 68 77 94 84 80 79 84 87 67 59 64 65 56 57 49 50 52 48 51 57 58 60 63 60 59 57 55 51 44
65 64 65 63 65 65 68 68 71 77 76 80 82 75 72 68 64 72 81 77 76 79 72 61 58 63 55 51 62 58 62 57 58 54 52 55 51 46
57 60 66 68 73 70 68 70 68 71 68 67 72 70 68 66 66 68 70 70 67 61 63 62 63 63 63 60 62 52 51 52 53 49 45 47 46 43
72 71 76 77 70 69 71 71 68 67 67 69 71 74 69 64 60 65 66 63 63 59 66 69 71 60 57 57 57 54 49 48 52 44 43 44 42 41
67 67 68 65 61 59 62 66 68 72 71 69 68 65 66 61 59 62 63 65 65 62 65 67 61 62 67 60 56 50 51 46 48 44 43 43 43 41
72 73 73 70 68 64 62 62 63 62 63 64 65 69 74 72 75 72 67 67 75 69 64 63 52 61 61 57 57 56 50 45 48 49 45 44 45 43
66 67 68 66 64 64 65 59 57 56 56 56 61 67 70 68 60 67 71 77 81 74 67 73 69 66 52 51 55 54 46 34 34 45 42 45 45 44
66 70 63 61 53 48 43 44 45 46 50 58 66 70 70 69 59 61 69 73 78 78 68 77 74 75 64 55 51 56 48 43 43 30 34 45 45 44
75 58 51 44 29 28 32 40 49 61 66 69 66 74 79 76 72 67 75 77 86 77 75 69 76 78 74 65 60 53 56 51 47 46 38 35 43 43
58 51 41 35 34 38 49 52 63 66 66 75 78 78 74 74 80 80 74 82 82 79 75 61 68 67 67 72 63 55 64 52 49 52 48 44 39 49
46 40 36 39 40 44 51 56 57 62 62 69 84 85 88 94 95 89 86 87 89 96 87 65 58 53 65 58 53 56 73 51 53 53 55 55 49 49
34 31 49 53 46 44 45 44 37 48 66 79 82 86 89 88 86 89 86 88 93 93 86 81 79 68 61 62 65 60 50 67 69 67 55 62 62 60
40 48 56 46 36 31 32 34 35 48 73 77 76 91 96 88 83 88 79 64 67 72 72 78 75 74 72 76 73 71 67 69 79 76 76 64 68 75
51 48 42 36 28 28 27 19 32 48 68 87 93 101 50 40 46 44 45 43 57 64 63 68 71 70 74 77 72 68 63 65 63 71 75 56 53 69
44 38 41 33 26 18 26 28 37 59 76 88 99 102 41 21 20 22 31 43 51 52 55 57 57 66 67 68 73 72 67 62 55 47 71 67 69 75
52 41 27 26 17 22 32 40 48 50 65 81 97 111 83 33 20 17 28 40 43 48 52 51 45 45 48 54 58 64 68 65 60 62 57 75 87 86
38 56 47 30 27 28 34 39 46 60 54 72 77 102 101 59 23 16 25 28 33 37 41 47 44 38 46 52 48 51 60 56 60 64 64 71 80 84
42 40 47 36 34 33 38 40 43 50 64 56 62 79 98 94 60 19 12 23 26 28 27 34 33 34 44 47 43 41 40 46 50 51 51 54 56 61
42 39 42 41 40 39 41 44 48 47 64 53 61 61 79 96 95 86 45 14 15 24 23 25 22 31 35 35 32 34 38 37 39 46 50 50 55 61
36 38 43 43 45 43 43 44 50 50 54 51 58 61 52 71 90 89 90 65 46 33 23 15 9 10 13 18 24 30 34 29 35 40 45 50 49 53
38 41 43 46 47 46 45 46 50 53 57 52 56 50 52 44 51 67 77 82 59 56 60 51 40 27 23 13 10 22 20 11 9 9 11 9 21 42
Wind_Direction_500mb
311 304 296 289 290 286 284 283 283 288 288 291 295 297 299 295 291 282 285 288 293 303 283 266 260 264 265 272 274 269 269 270 271 272 266 262 262 267
311 305 303 295 286 285 284 283 281 282 285 286 286 285 280 285 280 277 282 282 279 285 279 264 250 262 268 278 275 269 269 270 272 267 265 260 260 264
307 299 296 295 293 289 286 285 284 282 285 289 286 285 284 275 273 280 278 283 285 275 292 266 259 265 274 273 270 271 270 268 273 267 259 258 256 258
305 300 298 297 296 295 290 287 285 286 286 283 287 289 288 287 289 283 280 282 283 281 282 276 270 268 278 272 269 276 276 269 273 267 256 249 248 252
307 305 301 297 295 297 297 294 290 290 287 286 286 289 290 289 289 285 284 284 281 277 275 271 272 272 277 267 274 275 281 270 267 264 249 240 240 249
298 297 296 295 293 296 294 292 291 290 289 290 291 292 293 290 290 287 288 285 283 278 277 278 277 277 274 267 270 274 282 271 263 258 245 234 236 247
302 299 296 296 295 297 294 290 291 289 289 288 287 290 291 294 291 292 289 288 284 281 279 279 277 268 268 272 266 271 273 273 261 249 241 235 238 240
304 301 298 295 293 295 297 294 288 288 284 283 289 287 289 292 289 286 286 284 281 279 279 282 278 274 271 275 260 268 268 274 260 242 240 243 243 239
307 306 304 299 296 294 297 292 286 284 283 286 285 286 291 295 294 284 282 278 276 278 280 277 273 268 261 272 267 259 257 258 257 237 238 241 243 242
309 307 305 303 299 300 299 292 289 287 290 292 294 292 291 289 288 285 278 276 275 271 269 267 268 268 264 262 265 258 243 240 254 243 242 238 240 241
309 308 308 307 313 306 295 297 295 294 294 293 285 286 285 284 276 283 269 268 267 270 269 264 264 267 265 264 258 265 251 239 239 259 237 243 234 237
310 311 306 304 294 300 307 298 297 298 298 295 291 287 286 283 281 277 270 261 261 263 259 255 259 260 265 261 256 265 235 235 245 251 257 245 237 233
313 316 324 322 309 299 298 300 303 304 304 304 300 292 288 290 281 271 266 260 258 256 254 246 253 256 252 255 265 255 238 254 250 244 237 242 238 237
316 319 321 324 320 314 308 307 315 325 322 319 314 300 293 289 272 278 274 265 255 251 256 245 247 246 249 245 244 248 249 254 250 239 236 234 236 234
324 318 326 331 329 327 323 331 330 336 341 329 317 307 296 283 271 272 266 255 242 242 245 241 245 246 243 246 247 249 249 248 254 248 266 247 236 240
328 333 338 346 338 331 355 341 348 345 353 344 321 322 303 280 270 258 242 230 230 236 239 235 237 239 243 243 245 244 246 250 249 262 238 259 258 250
332 338 327 349 359 9 333 331 338 358 4 357 355 355 335 292 289 248 232 233 233 236 235 236 235 238 238 244 246 245 252 260 260 256 230 263 258 254
354 354 347 6 8 354 347 355 7 358 0 7 10 12 14 309 292 264 247 243 240 244 244 242 233 235 237 236 240 245 249 251 251 253 243 243 256 258
9 20 33 28 4 12 3 11 10 9 8 16 9 18 21 20 35 294 270 252 247 246 248 249 249 244 236 236 241 246 246 246 247 249 249 250 252 254
43 10 11 15 20 22 29 22 15 13 20 16 19 20 25 30 35 21 296 270 260 259 263 266 253 236 234 239 243 246 246 251 245 249 251 249 253 252
46 21 7 13 24 30 33 31 24 21 22 19 14 16 23 31 34 37 48 78 255 249 251 256 233 230 232 242 244 239 241 240 250 256 254 254 258 259
29 25 10 21 25 26 28 26 28 29 23 24 24 26 18 30 35 35 39 44 65 87 115 142 162 176 212 229 240 237 233 241 251 257 256 253 251 250
21 7 12 19 19 21 19 20 23 26 24 30 26 24 22 15 29 43 48 39 38 59 86 90 88 93 94 98 128 140 135 132 158 156 143 202 241 247
Wind_Speed_850mb
63 63 63 63 64 61 59 59 64 70 70 68 65 60 59 65 62 59 60 58 61 59 68 72 52 55 53 64 64 58 56 52 52 52 55 53 50 49
59 62 61 61 64 68 66 65 67 71 80 83 74 66 54 47 50 54 55 55 54 48 60 62 57 56 49 61 65 61 58 58 57 57 52 53 50 46
65 66 71 64 68 69 66 67 68 68 77 94 84 80 79 84 87 67 59 64 65 56 57 49 50 52 48 51 57 58 60 63 60 59 57 55 51 44
65 64 65 63 65 65 68 68 71 77 76 80 82 75 72 68 64 72 81 77 76 79 72 61 58 63 55 51 62 58 62 57 58 54 52 55 51 46
57 60 66 68 73 70 68 70 68 71 68 67 72 70 68 66 66 68 70 70 67 61 63 62 63 63 63 60 62 52 51 52 53 49 45 47 46 43
72 71 76 77 70 69 71 71 68 67 67 69 71 74 69 64 60 65 66 63 63 59 66 69 71 60 57 57 57 54 49 48 52 44 43 44 42 41
67 67 68 65 61 59 62 66 68 72 71 69 68 65 66 61 59 62 63 65 65 62 65 67 61 62 67 60 56 50 51 46 48 44 43 43 43 41
72 73 73 70 68 64 62 62 63 62 63 64 65 69 74 72 75 72 67 67 75 69 64 63 52 61 61 57 57 56 50 45 48 49 45 44 45 43
66 67 68 66 64 64 65 59 57 56 56 56 61 67 70 68 60 67 71 77 81 74 67 73 69 66 52 51 55 54 46 34 34 45 42 45 45 44
66 70 63 61 53 48 43 44 45 46 50 58 66 70 70 69 59 61 69 73 78 78 68 77 74 75 64 55 51 56 48 43 43 30 34 45 45 44
75 58 51 44 29 28 32 40 49 61 66 69 66 74 79 76 72 67 75 77 86 77 75 69 76 78 74 65 60 53 56 51 47 46 38 35 43 43
58 51 41 35 34 38 49 52 63 66 66 75 78 78 74 74 80 80 74 82 82 79 75 61 68 67 67 72 63 55 64 52 49 52 48 44 39 49
46 40 36 39 40 44 51 56 57 62 62 69 84 85 88 94 95 89 86 87 89 96 87 65 58 53 65 58 53 56 73 51 53 53 55 55 49 49
34 31 49 53 46 44 45 44 37 48 66 79 82 86 89 88 86 89 86 88 93 93 86 81 79 68 61 62 65 60 50 67 69 67 55 62 62 60
40 48 56 46 36 31 32 34 35 48 73 77 76 91 96 88 83 88 79 64 67 72 72 78 75 74 72 76 73 71 67 69 79 76 76 64 68 75
51 48 42 36 28 28 27 19 32 48 68 87 93 101 50 40 46 44 45 43 57 64 63 68 71 70 74 77 72 68 63 65 63 71 75 56 53 69
44 38 41 33 26 18 26 28 37 59 76 88 99 102 41 21 20 22 31 43 51 52 55 57 57 66 67 68 73 72 67 62 55 47 71 67 69 75
52 41 27 26 17 22 32 40 48 50 65 81 97 111 83 33 20 17 28 40 43 48 52 51 45 45 48 54 58 64 68 65 60 62 57 75 87 86
38 56 47 30 27 28 34 39 46 60 54 72 77 102 101 59 23 16 25 28 33 37 41 47 44 38 46 52 48 51 60 56 60 64 64 71 80 84
42 40 47 36 34 33 38 40 43 50 64 56 62 79 98 94 60 19 12 23 26 28 27 34 33 34 44 47 43 41 40 46 50 51 51 54 56 61
42 39 42 41 40 39 41 44 48 47 64 53 61 61 79 96 95 86 45 14 15 24 23 25 22 31 35 35 32 34 38 37 39 46 50 50 55 61
36 38 43 43 45 43 43 44 50 50 54 51 58 61 52 71 90 89 90 65 46 33 23 15 9 10 13 18 24 30 34 29 35 40 45 50 49 53
38 41 43 46 47 46 45 46 50 53 57 52 56 50 52 44 51 67 77 82 59 56 60 51 40 27 23 13 10 22 20 11 9 9 11 9 21 42
Wind_Direction_850mb
311 304 296 289 290 286 284 283 283 288 288 291 295 297 299 295 291 282 285 288 293 303 283 266 260 264 265 272 274 269 269 270 271 272 266 262 262 267
311 305 303 295 286 285 284 283 281 282 285 286 286 285 280 285 280 277 282 282 279 285 279 264 250 262 268 278 275 269 269 270 272 267 265 260 260 264
307 299 296 295 293 289 286 285 284 282 285 289 286 285 284 275 273 280 278 283 285 275 292 266 259 265 274 273 270 271 270 268 273 267 259 258 256 258
305 300 298 297 296 295 290 287 285 286 286 283 287 289 288 287 289 283 280 282 283 281 282 276 270 268 278 272 269 276 276 269 273 267 256 249 248 252
307 305 301 297 295 297 297 294 290 290 287 286 286 289 290 289 289 285 284 284 281 277 275 271 272 272 277 267 274 275 281 270 267 264 249 240 240 249
298 297 296 295 293 296 294 292 291 290 289 290 291 292 293 290 290 287 288 285 283 278 277 278 277 277 274 267 270 274 282 271 263 258 245 234 236 247
302 299 296 296 295 297 294 290 291 289 289 288 287 290 291 294 291 292 289 288 284 281 279 279 277 268 268 272 266 271 273 273 261 249 241 235 238 240
304 301 298 295 293 295 297 294 288 288 284 283 289 287 289 292 289 286 286 284 281 279 279 282 278 274 271 275 260 268 268 274 260 242 240 243 243 239
307 306 304 299 296 294 297 292 286 284 283 286 285 286 291 295 294 284 282 278 276 278 280 277 273 268 261 272 267 259 257 258 257 237 238 241 243 242
309 307 305 303 299 300 299 292 289 287 290 292 294 292 291 289 288 285 278 276 275 271 269 267 268 268 264 262 265 258 243 240 254 243 242 238 240 241
309 308 308 307 313 306 295 297 295 294 294 293 285 286 285 284 276 283 269 268 267 270 269 264 264 267 265 264 258 265 251 239 239 259 237 243 234 237
310 311 306 304 294 300 307 298 297 298 298 295 291 287 286 283 281 277 270 261 261 263 259 255 259 260 265 261 256 265 235 235 245 251 257 245 237 233
313 316 324 322 309 299 298 300 303 304 304 304 300 292 288 290 281 271 266 260 258 256 254 246 253 256 252 255 265 255 238 254 250 244 237 242 238 237
316 319 321 324 320 314 308 307 315 325 322 319 314 300 293 289 272 278 274 265 255 251 256 245 247 246 249 245 244 248 249 254 250 239 236 234 236 234
324 318 326 331 329 327 323 331 330 336 341 329 317 307 296 283 271 272 266 255 242 242 245 241 245 246 243 246 247 249 249 248 254 248 266 247 236 240
328 333 338 346 338 331 355 341 348 345 353 344 321 322 303 280 270 258 242 230 230 236 239 235 237 239 243 243 245 244 246 250 249 262 238 259 258 250
332 338 327 349 359 9 333 331 338 358 4 357 355 355 335 292 289 248 232 233 233 236 235 236 235 238 238 244 246 245 252 260 260 256 230 263 258 254
354 354 347 6 8 354 347 355 7 358 0 7 10 12 14 309 292 264 247 243 240 244 244 242 233 235 237 236 240 245 249 251 251 253 243 243 256 258
9 20 33 28 4 12 3 11 10 9 8 16 9 18 21 20 35 294 270 252 247 246 248 249 249 244 236 236 241 246 246 246 247 249 249 250 252 254
43 10 11 15 20 22 29 22 15 13 20 16 19 20 25 30 35 21 296 270 260 259 263 266 253 236 234 239 243 246 246 251 245 249 251 249 253 252
46 21 7 13 24 30 33 31 24 21 22 19 14 16 23 31 34 37 48 78 255 249 251 256 233 230 232 242 244 239 241 240 250 256 254 254 258 259
29 25 10 21 25 26 28 26 28 29 23 24 24 26 18 30 35 35 39 44 65 87 115 142 162 176 212 229 240 237 233 241 251 257 256 253 251 250
21 7 12 19 19 21 19 20 23 26 24 30 26 24 22 15 29 43 48 39 38 59 86 90 88 93 94 98 128 140 135 132 158 156 143 202 241 247